Flag for Australia Weather past 2 weeks in Hobart, Tasmania, Australia

Now
45 °F

Clear.


Feels Like: 41 °F
Forecast: 32 / 54 °F
Wind: 6 mph from Northwest

Location: Hobart Airport

Current Time: Jul 23, 2014 at 1:25:26 AM

Latest Report: Jul 23, 2014 at 1:00 AM


Visibility: 10 mi

Pressure: 30.24 "Hg

Humidity: 81%

Dew point: 39 °F

Location of HobartLocation

Historic Weather in Hobart — Graph

°F

Hobart temperature yesterday

Maximum temperature yesterday: 55 °F (at 3:00 PM)
Minimum temperature yesterday: 36 °F (at 5:00 AM)
Average temperature yesterday: 44 °F

Past Weeks' High & Low Weather Summary

 TemperatureHumidityPressure
High61 °F (Jul 8, 2:00 PM)100% (Jul 8, 12:00 AM)30.42 "Hg (Jul 8, 12:00 AM)
Low34 °F (Jul 21, 7:00 AM)39% (Jul 11, 2:00 PM)29.36 "Hg (Jul 17, 1:30 PM)
Average47 °F75%29.95 "Hg
* Reported Midnight between Jul 7 and Jul 8 — Midnight between Jul 22 and Jul 23, Hobart, Weather by CustomWeather, © 2014

Note: Actual official high and low records may vary slightly from our data, if they occured in-between our weather recording intervals... More about our weather records

Advertising

Hobart weather history for previous 24 hours

 ConditionsComfort  
Time TempWeatherWind HumidityBarometerVisibility
12:00 AM
Jul 23
45 °FClear.7 mph87%30.24 "Hg10 mi
11:30 PM
Jul 22
45 °FClear.3 mph81%30.24 "Hg10 mi
11:00 PM45 °FClear.7 mph81%30.24 "Hg10 mi
10:30 PM45 °FClear.3 mph81%30.24 "Hg10 mi
10:00 PM45 °FClear.6 mph81%30.24 "Hg10 mi
9:30 PM45 °FClear.5 mph87%30.24 "Hg10 mi
9:00 PM45 °FClear.5 mph81%30.24 "Hg10 mi
8:30 PM45 °FPassing clouds.3 mph87%30.24 "HgN/A
8:00 PM45 °FPassing clouds.2 mph87%30.24 "HgN/A
7:30 PM46 °FPassing clouds.5 mph82%30.24 "HgN/A
7:00 PM48 °FPassing clouds.5 mph71%30.24 "HgN/A
6:30 PM48 °FPassing clouds.7 mph76%30.24 "HgN/A
6:00 PM50 °FPassing clouds.2 mph71%30.24 "HgN/A
5:30 PM50 °FPartly cloudy.3 mph71%30.24 "HgN/A
5:00 PM52 °FPartly cloudy.No wind62%30.21 "HgN/A
4:30 PM52 °FPassing clouds.No wind67%30.21 "HgN/A
4:00 PM54 °FScattered clouds.5 mph58%30.21 "HgN/A
3:30 PM54 °FPassing clouds.7 mph58%30.21 "HgN/A
3:00 PM55 °FPassing clouds.8 mph55%30.21 "HgN/A
2:30 PM54 °FPassing clouds.8 mph54%30.21 "HgN/A
2:00 PM54 °FPassing clouds.8 mph58%30.21 "HgN/A
1:30 PM54 °FPassing clouds.8 mph58%30.24 "HgN/A
1:00 PM52 °FPassing clouds.10 mph62%30.24 "HgN/A
12:30 PM50 °FScattered clouds.13 mph67%30.24 "HgN/A
12:00 PM48 °FScattered clouds.13 mph71%30.27 "HgN/A
11:30 AM48 °FSunny.12 mph66%30.27 "Hg10 mi
11:00 AM45 °FSunny.10 mph81%30.30 "Hg10 mi
10:30 AM43 °FSunny.10 mph81%30.30 "Hg10 mi
10:00 AM43 °FPassing clouds.9 mph81%30.30 "HgN/A
9:30 AM41 °FPassing clouds.10 mph87%30.30 "HgN/A
9:00 AM39 °FPassing clouds.10 mph87%30.30 "HgN/A
8:30 AM39 °FPassing clouds.7 mph87%30.30 "HgN/A
8:00 AM37 °FPassing clouds.8 mph93%30.30 "HgN/A
7:00 AM37 °FPassing clouds.10 mph87%30.27 "HgN/A
6:30 AM37 °FPassing clouds.10 mph87%30.27 "HgN/A
6:00 AM36 °FPassing clouds.9 mph93%30.27 "HgN/A
5:30 AM36 °FPassing clouds.10 mph93%30.27 "HgN/A
5:00 AM36 °FPassing clouds.7 mph93%30.27 "HgN/A
4:30 AM37 °FPassing clouds.8 mph93%30.27 "HgN/A
4:00 AM37 °FPassing clouds.9 mph93%30.27 "HgN/A
3:30 AM37 °FPassing clouds.8 mph93%30.27 "HgN/A
3:00 AM37 °FPassing clouds.8 mph93%30.27 "HgN/A
2:30 AM37 °FPassing clouds.7 mph93%30.27 "HgN/A
2:00 AM37 °FPassing clouds.8 mph93%30.27 "HgN/A
1:30 AM37 °FPassing clouds.6 mph93%30.27 "HgN/A
1:00 AM37 °FPassing clouds.6 mph93%30.27 "HgN/A
Weather by CustomWeather, © 2014

See weather overviewHow to use our weather pages